OpenBCM V2.0.3 (Linux)

Packet Radio Mailbox

IZ3LSV

[San Dona' di P. JN]

 Login: GUEST





  
I0OJJ  > AMSAT    06.09.26 02:27l 332 Lines 15654 Bytes #999 (0) @ WW
BID : 5L4_IR0EQ
Read: GUEST
Subj: 2Line Orbital Elements
Path: IZ3LSV<I0OJJ<IR0EQ
Sent: 260906/0025z @:IR0EQ.ITA.EU [Rome] $:5L4_IR0EQ

>From i0ojj%ir0eq.ita.eu@i0ojj.ampr.org Sun Sep  6 02:27:22 2026
Received: from i0ojj.ampr.org by i0ojj.ampr.org (JNOS2.0q.1) with SMTP
	id AA17066046 ; Sun, 06 Sep 2026 02:27:22 +0200
Message-Id: <5L4_IR0EQ@i0ojj.bbs>
>From: i0ojj@ir0eq.ita.eu
X-JNOS-User-Port: Telnet   (i0ojj @ 44.27.18.9)  ->   Sending message

>From i0ojj@rgate.ampr.org Sun Sep  6 02:25:24 2026
Received: from rgate.ampr.org by rgate.ampr.org (JNOS2.0q.1) with SMTP
	id AA7240 ; Sun, 06 Sep 2026 02:25:24 +0200
Received: by rgate.ampr.org with SMTP
	id AA7237 ; Sun, 06 Sep 2026 02:25:09 +0200
Message-Id: <7238@rgate.ampr.org>
>From: i0ojj@rgate.ampr.org

SB KEPS @ AMSAT  $ORB26249.1
2Line Orbital Elements 26249.AMSAT

QST de W1STR

AMSAT Orbital Elements for Amateur Satellites in TLE Format
>From Orbital Analysis Office
New England Sci-Tech STEM Education Center
Natick MA September 06, 2026
To all radio amateurs


These element sets describe the orbits of various satellites 
in use by the amateur radio community. For details see:
www.amsat.org/keplerian-elements-formats/

A daily update of element sets is available at:
www.amsat.org/tle/daily-bulletin.txt
or without bulletin text:
www.amsat.org/tle/dailytle.txt


AO-07
1 07530U 74089B   26248.59130125 -.00000043  00000-0  21695-4 0  9996
2 07530 101.9921 262.6788 0012123 339.5389 137.0368 12.53699414370594
UO-11
1 14781U 84021B   26248.62624934  .00000754  00000-0  82051-4 0  9990
2 14781  97.8152 213.3498 0006011 281.2573  78.7969 14.90970473269110
LO-19
1 20442U 90005G   26248.62463991  .00000030  00000-0  27328-4 0  9997
2 20442  98.8832 272.6382 0011013 335.3090  24.7565 14.34141952913928
AO-27
1 22825U 93061C   26248.48168711  .00000021  00000-0  25028-4 0  9990
2 22825  98.6810 315.8379 0007668 218.6350 141.4285 14.30959405718484
FO-29
1 24278U 96046B   26248.52806555 -.00000030  00000-0  83082-5 0  9996
2 24278  98.5178  86.3867 0348897 247.8847 108.4914 13.53277661484037
GO-32
1 25397U 98043D   26248.70295319  .00000030  00000-0  33211-4 0  9995
2 25397  99.0143 243.5189 0001498  30.1246 330.0018 14.24441387462795
ISS
1 25544U 98067A   26248.82108009  .00003926  00000-0  79393-4 0  9995
2 25544  51.6311 261.0087 0005044 110.8887 249.2642 15.48999633584259
NO-44
1 26931U 01043C   26248.62047650  .00000048  00000-0  49014-4 0  9995
2 26931  67.0512  36.2280 0005698 271.3507  88.6942 14.31980985301962
SO-50
1 27607U 02058C   26248.46309999  .00000518  00000-0  78952-4 0  9997
2 27607  64.5503 240.5831 0072525 247.7317 111.6087 14.83194935276367
CO-55
1 27844U 03031E   26248.46984466  .00000158  00000-0  87182-4 0  9995
2 27844  98.6771 256.0312 0008726 318.2171  41.8341 14.24376899203100
RS-22
1 27939U 03042A   26248.89171214  .00000391  00000-0  68252-4 0  9994
2 27939  98.3492  75.5523 0011770  18.8051  88.5237 14.73587326227430
CO-65
1 32785U 08021C   26248.84026213  .00003346  00000-0  20935-3 0  9992
2 32785  97.8363 232.0124 0010298 110.3571 249.8765 15.10094417997362
CO-66
1 32791U 08021J   26248.75900464  .00013099  00000-0  38462-3 0  9998
2 32791  97.7567 250.6817 0003983  59.7861 300.3775 15.35277130999649
RS-30
1 32953U 08025A   26248.81800771 -.00000026  00000-0 -26053-3 0  9990
2 32953  82.5041 305.2945 0020538 133.9242 226.3538 12.43182437829715
SRMSAT
1 37841U 11058D   26248.82543028  .00000351  00000-0  46526-4 0  9998
2 37841  19.9720 291.3783 0011847  12.2039 145.0387 14.11590566769226
ZACUBE-1
1 39417U 13066B   26248.84785994  .00003819  00000-0  29329-3 0  9995
2 39417  97.8098 211.5852 0040822 343.4115  16.5771 15.01729268692834
Delfi-N3xt
1 39428U 13066N   26248.73492522  .00004722  00000-0  40542-3 0  9991
2 39428  97.8292 169.0006 0071361 299.5309  59.8810 14.95998843686665
GOMX-1
1 39430U 13066Q   26248.80265190  .00001200  00000-0  18538-3 0  9999
2 39430  97.6450  84.1853 0127975 177.7759 182.4045 14.69667355681758
LO-74
1 39440U 13066AA  26248.83493881  .00001461  00000-0  13742-3 0  9994
2 39440  97.8965 198.2077 0058343 118.9392 241.7695 14.94218664689031
AO-73
1 39444U 13066AE  26248.50523863  .00004022  00000-0  24531-3 0  9990
2 39444  97.8362 221.7223 0033668 291.5614  68.2028 15.10486841691789
DTUSAT-2
1 40030U 14033W   26248.52645432  .00003836  00000-0  20401-3 0  9991
2 40030  98.0921 251.4324 0006768 333.0844  27.0035 15.15924052664851
LILACSAT-2
1 40908U 15049K   26248.82795014  .00013065  00000-0  20357-3 0  9993
2 40908  97.4583 288.8497 0005117 331.2210  28.8760 15.53994726608265
Lapan A3
1 41603U 16040E   26248.91734999  .00001984  00000-0  63379-4 0  9992
2 41603  97.1558 242.4636 0012153  86.7303 273.5331 15.33548115567184
CAS-2T
1 41847U 16066G   26248.71384238  .00000450  00000-0  73168-4 0  9999
2 41847  98.3764 323.5257 0340141 245.1063 111.4420 14.44827140516420
TechnoSat
1 42829U 17042E   26248.42395577  .00001781  00000-0  12806-3 0  9990
2 42829  97.4393  43.1011 0017615 174.1092 186.0346 15.05358043498773
AO-91
1 43017U 17073E   26248.88172882  .00005161  00000-0  22005-3 0  9994
2 43017  97.4583 114.4497 0149048  50.1654 311.2582 15.13777041477590
S-Net D
1 43186U 18014G   26248.67065597  .00002967  00000-0  15212-3 0  9991
2 43186  97.5262 152.9546 0009848  97.4997 262.7355 15.17310044470963
S-Net B
1 43187U 18014H   26248.68374219  .00003058  00000-0  15679-3 0  9996
2 43187  97.5267 152.9563 0010506  93.7532 266.4902 15.17278134470967
S-Net A
1 43188U 18014J   26248.66909492  .00002939  00000-0  15065-3 0  9998
2 43188  97.5277 153.1665 0010393  94.3366 265.9055 15.17318423470960
S-Net C
1 43189U 18014K   26248.68810836  .00003035  00000-0  15565-3 0  9997
2 43189  97.5297 153.2724 0011742  88.1641 272.0937 15.17267930469519
Ten-Koh
1 43677U 18084G   26248.54156348  .00001164  00000-0  90886-4 0  9993
2 43677  98.0754  84.3032 0008798 199.2553 160.8340 15.03221299428233
PO-101
1 43678U 18084H   26248.85435832  .00000836  00000-0  71133-4 0  9995
2 43678  98.1194  88.6144 0010920 259.1821 100.8173 15.00703252428316
QO-100
1 43700U 18090A   26248.74151441  .00000132  00000-0  00000+0 0  9996
2 43700   0.0187 178.1197 0002492  23.7776  75.6826  1.00270104 28486
MinXSS-2
1 43758U 18099A   26248.67713062  .00030556  00000-0  49818-3 0  9990
2 43758  97.4457 327.6233 0005264 331.8539  28.2429 15.52551763426593
AO-95
1 43770U 18099N   26247.93307238  .00006118  00000-0  22481-3 0  9990
2 43770  97.4308 307.9388 0009779  71.1591 289.0708 15.28237080425391
SNUSat 2
1 43782U 18099AA  26248.58701926  .00004522  00000-0  19548-3 0  9994
2 43782  97.3988 300.7630 0010375  23.2617 336.9087 15.22923302425260
SnugLite
1 43784U 18099AC  26248.36679749  .00006039  00000-0  21916-3 0  9996
2 43784  97.3797 301.9126 0003177  39.1449 321.0020 15.28690355425564
ITASat 1
1 43786U 18099AE  26248.62563269  .00004234  00000-0  19969-3 0  9996
2 43786  97.3959 298.5479 0013869  74.6202 285.6565 15.19928434425121
EAGLET 1
1 43790U 18099AJ  26248.59523942  .00002179  00000-0  12529-3 0  9992
2 43790  97.4162 296.1295 0012569  71.1680 289.0914 15.13456572424499
ESEO
1 43792U 18099AL  26248.33178482  .00000369  00000-0  30490-4 0  9998
2 43792  97.3912 282.2753 0013393  63.1763 297.0832 15.04441617423858
JO-97
1 43803U 18099AX  26248.41528751  .00009836  00000-0  28253-3 0  9999
2 43803  97.4049 311.6314 0004831   0.6089 359.5160 15.36029895425931
Suomi 100
1 43804U 18099AY  26248.16448230  .00007047  00000-0  24421-3 0  9990
2 43804  97.4108 308.3228 0009351   6.8624 353.2743 15.30106154425644
ISAT
1 43879U 18111D   26248.35855367  .00260291  26518-4  93206-3 0  9996
2 43879  97.5783 190.9128 0007226 116.9492 243.2519 15.88754673423785
UWE-4
1 43880U 18111E   26248.53614087  .00030383  00000-0  52207-3 0  9997
2 43880  97.5811 180.9182 0008661  50.6356 309.5662 15.51052572423217
Prox-1
1 44339U 19036A   26248.80884061  .00007318  00000-0  67129-3 0  9996
2 44339  23.9952 294.9690 0004918 247.0661 112.9320 14.92300094385525
Taurus 1
1 44530U 19059C   26248.83531942  .00003716  00000-0  58935-3 0  9997
2 44530  98.6496  58.7529 0009333  62.8509 297.3647 14.72817122370513
TO-108
1 44881U 19093C   26248.88419370  .00000490  00000-0  61218-4 0  9994
2 44881  97.7462 319.1250 0013480 175.0744 185.0607 14.86621905363402
RS-44
1 44909U 19096E   26248.84263466  .00000014  00000-0  19378-4 0  9999
2 44909  82.5186 286.1158 0216668 316.0136  42.3896 12.79749155312668
SALSAT
1 46495U 20068K   26248.83372744  .00004730  00000-0  16153-3 0  9997
2 46495  97.8892 256.8865 0010146  29.6582 330.5231 15.30810766327698
CSS (TIANHE-1)
1 48274U 21035A   26248.87674551  .00013260  00000-0  16562-3 0  9996
2 48274  41.4675 192.1527 0002318 259.7265 100.3311 15.59611670305762
TeikyoSat 4
1 49396U 21102B   26248.58855976  .00000774  00000-0  51690-4 0  9995
2 49396  97.3640 274.9433 0012564  23.8676 336.3134 15.09747482264859
Z-Sat
1 49399U 21102E   26248.85315071  .00000371  00000-0  21004-4 0  9994
2 49399  97.3285 281.7338 0015485 331.3137  28.7245 15.18794091265686
KOSEN 1
1 49402U 21102H   26248.85574985  .00004034  00000-0  15091-3 0  9998
2 49402  97.3128 289.4734 0011510 283.2060  76.7896 15.27833955266338
HO-113
1 50466U 21131B   26248.85670256  .00000190  00000-0  72098-4 0  9990
2 50466  98.4967 340.8083 0003526 200.4749 159.6299 14.41418706246733
SNUGLITE 2
1 52899U 22065F   26248.86242098  .00000520  00000-0  10734-3 0  9994
2 52899  98.2317  33.6082 0008512 125.5854 234.6142 14.64472261222806
UmKA 1 (RS40S)
1 57172U 23091G   26248.80396505  .00003344  00000-0  15110-3 0  9990
2 57172  97.4975 307.2015 0012179 190.5958 169.5023 15.21594432176264
CubeBel-2 (EU11S)
1 57175U 23091K   26248.82038588  .00007347  00000-0  24836-3 0  9991
2 57175  97.4976 312.8277 0009432 179.8542 180.2703 15.30902821176638
